Tracking 30703 objects as of 14-Jun-2025
HD Live streaming from Space Station
objects crossing your sky now

SBS 6

Track SBS 6 now!
SBS 6 is classified as:


NORAD ID: 20872
Int'l Code: 1990-091A
Perigee: 36,123.8 km
Apogee: 36,187.3 km
Inclination: 12.1 °
Period: 1,454.6 minutes
Semi major axis: 42526 km
RCS: 24.6021 m2 (large)
Launch date: October 12, 1990
Source: United States (US)
Launch site: FRENCH GUIANA (FRGUI)
Your satellite tracking list
Your tracking list is empty




NASA's NSSDC Master Catalog

Two Line Element Set (TLE):
1 20872U 90091A   25164.82883794 -.00000136  00000-0  00000-0 0  9996
2 20872  12.0824  31.5476 0007472 121.8335 232.9005  0.98994899 42447
Source of the keplerian elements: AFSPC